Погода в Ореле

Хотите узнать прогноз погоды в Ореле? Тогда Вам сюда: Погода в Ореле

Поиск расширенной информации на нашем сайте:

Полезная информация:

Новости сайта



02.01.2020
Опубликован Долгосрочный прогноз погоды по городам России и ближнего зарубежья на январь 2020 года.
Карты: Прогноз на январь и февраль 2020 года, Сравнение прогнозируемой аномалии приземной температуры воздуха на январь 2020 года по разным моделям.




Погода в Ореле - сегодня

Время (UTC), дата Ветер
(°,м/с) 
Видим.   Явления Облачность Т
(°С)
Тd
(°С)
f(%) Тe
(°С)
Pmin
(гПа)
dP
(гПа)
Po
(мм)
O2
(г/м3)
Тmin Tmax R s Состояние
почвы
06 05.04.20 270 (З) 10 км  в посл. час ливневой снег  8/3 600 м кучево-дожд., верхняя 
[Cb calv|Ci fib]
+1.3 -2.3 77 +1  1026.8  1.3  752  302  -4.3    0.0    сухая 
09 05.04.20 310 (СЗ) 10 км    8/5 600 м кучево-дожд., верхняя 
[Cb calv|Ci fib]
+6.9 -4.5 44 +6  1025.7  -0.6  751  296           
12 05.04.20 310 (СЗ) 5-11{13}  10 км  {ливн. осадки}  8/8 600 м кучево-дожд. 
[Cb calv]
+7.9 -9.3 28 +6  1025  -0.6  751  295           
15 05.04.20 340 (С) 3{13}  10 км    8/6 600 м кучево-дожд., верхняя 
[Cb calv|Ci fib]
+5.2 -9.8 33 +4  1026.9  1.6  752  298      0.0     
18 05.04.20 320 (СЗ) 10 км    ясно 
-0.6 -7.8 58 1029.5  754  305    +8.5  0.0     
21 05.04.20 310 (СЗ) 10 км    8/8 600 м 
[Sc]
-1.7 -6.8 68 -1  1030.5  0.9  754  307           
00 06.04.20 300 (СЗ) 10 км    ясно 
-3.1 -9.7 60 -3  1031.5  0.8  755  309           
03 06.04.20 310 (СЗ) 10 км    ясно 
-5.1 -9.7 70 -5  1032.6  0.9  756  311  -5.2         
06 06.04.20 360 (С) 10 км    9/0 средняя 
[Ac trans]
+3.1 -9 41 +3  1033.2  1.4  757  302  -5.3        сухая 
09 06.04.20 330 (СЗ) 10 км    9/0 средняя 
[Ac trans]
+6.4 -12.2 25 +6  1033.5  0.6  757  299           
12 06.04.20 330 (СЗ) 2{10}  10 км    3/0 средняя 
[Ac trans]
+9 -13.9 18 +9  1032.7  -0.6  757  296           
15 06.04.20 330 (СЗ) 10 км    10/10 600 м 
[Sc]
+7 -11.2 26 +7  1032.1  -0.8  756  298           
18 06.04.20 320 (СЗ) 10 км    10/10 600 м 
[Sc]
+5.7 -5.5 44 +7  1032.7  0.5  756  299    +9.3       
21 06.04.20 тихо ()   10 км    8/8 600 м 
[Sc]
+1.3 -5.6 60 +1  1033.7  0.5  757  304           
00 07.04.20 тихо ()   10 км    ясно 
-0.9 -5.4 71 -1  1035.1  1.2  758  307           
03 07.04.20 300 (СЗ) 10 км    4/0 средняя, верхняя 
[Ac trans|Ci fib]
-2.4 -5.1 82 -2  1036.8  1.5  759  309  -2.4         
06 07.04.20 тихо ()   10 км    4/0 средняя, верхняя 
[Ac trans|Ci fib]
+5.3 -3.5 53 +5  1037  0.8  760  301  -2.9        сухая 
09 07.04.20 320 (СЗ) 10 км    3/0 средняя, верхняя 
[Ac trans|Ci fib]
+9.5 -6 33 +10  1036  -0.7  759  296           
12 07.04.20 320 (СЗ) 10 км    4/3 600 м верхняя 
[Cu hum|Ci fib]
+12.2 -2.9 35 +13  1034.1  -1.6  758  293           
15 07.04.20 280 (З) 10 км    5/3 600 м верхняя 
[Cu hum|Ci fib]
+12.4 -2.3 36 +14  1031.6  -2.4  756  292           
18 07.04.20 200 (Ю) 10 км    ясно 
+9.4 -1.5 46 +9  1030.3  -1.5  755  294    +13.6       
21 07.04.20 210 (ЮЗ) 10 км    ясно 
+7.2 -2.2 51 +7  1028.6  -1.8  754  296           
00 08.04.20 220 (ЮЗ) 10 км    ясно 
+6.7 -2.4 52 +6  1026.1  -2.5  752  296           
03 08.04.20 210 (ЮЗ) 10 км    ясно 
+5.8 -3.3 52 +5  1022.2  -3.9  749  296  +4.8         
06 08.04.20 250 (З) 10 км    3/0 верхняя 
[Ci sp]
+9.8 -4.7 36 +9  1018.9  -2.9  747  291  +4.8        сухая 
Время (UTC), дата Ветер
(°,м/с) 
Видим.   Явления Облачность Т
(°С)
Тd
(°С)
f(%) Тe
(°С)
Pmin
(гПа)
dP
(гПа)
Po
(мм)
O2
(г/м3)
Тmin Tmax R s Состояние
почвы

Для получения пояснительной информации подведите курсор к названию столбца.

ПОГОДА в Ореле - архив

Всё, что Вы хотите узнать о погоде в Ореле - удобно и подробно!

Выберите нужную дату (начиная с 1 января 2019* года) и нажмите кнопку "Найти".
Будут отображены архивные сводки погоды по пункту Орел, начиная с указанной даты.


Отображать данные в формате CSV (для использования в таблицах Excel)


Внимание! Наш архив погоды предназначен исключительно для личного некоммерческого использования в познавательных целях. Если Вам необходимы официальные справки о состоянии погоды (для производственных, юридических, коммерческих и т.п. целей), обращайтесь в органы Росгидромета.

*Примечание: данная дата относится к архиву по метеостанциям СССР (Россия, СНГ, Балтия).
Архив по метеостанциям Зарубежной Европы и Азии (кроме Китая) хранится 10 дней, по другим регионам земного шара (Китай, Африка, Америка, Австралия, Океания) - 1 день.

Орел - район местоположения метеостанции


Название, широта, долгота, высота метеостанции:
Орел 52.9°ш. 36°д. 196 м над ур. моря [Российская Федерация]

Дополнительная информация

В oтличие oт бoльшинства пoгoдных сайтoв мы публикуем пoдрoбную метеoинфoрмацию в детальнoм прoфессиoнальнoм фoрмате.

Характеристики температуры и влажнoсти вoздуха измеряются на высoте 2 м в тени вдали oт зданий и деревьев.
Скoрoсть ветра измеряется на высoте 10 м (на урoвне рoста челoвека скoрoсть ветра ниже в 1.5-2 раза). Если метеoстанция нахoдится в гoрoде или в лесу, тo скoрoсть ветра занижена на 2-4 м/с пo сравнению с oткрытым местoм. Скoрoсть ветра над акватoриями крупных рек и oзёр, а также на вершинах хoлмoв на 2-5 м/с выше, чем в oбычных услoвиях.
Атмoсфернoе давление в разных тoчках местнoсти мoжет значительнo oтличаться oт давления на метеoстанции, в зависимoсти oт услoвий рельефа (при пoдъёме на 10 м давление пoнижается примернo на 1 мм рт.ст.).